Location: Aulus
(42.7909°N, 1.3399°E)
Time: 13:23:28
(UTC+00:00)

deb Kosmos- 1980 - Pass Details

Date: 14 October 2025
Orbit: 834 x 854 km, 71.0° (Epoch: 16 November)

Event Time Altitude Azimuth Distance (km) Brightness Sun altitude
Rises 20:22:55 0° 339° (NNW) 3,402 ? -34.9°
Reaches altitude 10° 20:25:26 10° 344° (NNW) 2,461 ? -35.3°
Enters shadow 20:27:22 22° 351° (N) 1,777 ? -35.7°
